Weather History for Dublin, Ireland

Change the Weather History Date:

Friday, May 17, 2013

  Actual Average Record
Temperature  
Mean Temperature 43 °F -  
Max Temperature 55 °F 61 °F 69 °F (2007)
Min Temperature 31 °F 47 °F 31 °F (2013)
Degree Days  
Heating Degree Days 22    
Moisture  
Dew Point 39 °F    
Average Humidity 78    
Maximum Humidity 100    
Minimum Humidity 40    
Precipitation  
Precipitation 0.00 in 0.07 in - ()
Sea Level Pressure  
Sea Level Pressure 29.79 in    
Wind  
Wind Speed 7 mph ()    
Max Wind Speed 14 mph    
Max Gust Speed -    
Visibility 6.8 miles    
Events      
Averages and records for this station are not official NWS values.
T = Trace of Precipitation, MM = Missing Value Source: Averaged Metar Reports

Daily Weather History Graph

Daily Weather History Graph

Search for Another Location

Airport:

Trip Planner

Search our weather history database for the weather conditions in past years. The results will help you decide how hot, cold, wet, or windy it might be!

Date:

Astronomy

May. 17, 2013 Rise Set
Actual Time 5:21 AM IST 9:22 PM IST
Civil Twilight 4:36 AM IST 10:07 PM IST
Nautical Twilight 3:31 AM IST 11:13 PM IST
Astronomical Twilight 1:54 AM IST 12:49 AM IST
Moon 12:04 PM IST (5/17) 1:46 AM IST (5/17)
Length of Visible Light 17h 31m
Length of Day
16h 00m
Waxing Crescent, 43% of the Moon is Illuminated
May 17
Waxing Crescent
May 18
First Quarter
May 25
Full
May 31
Last Quarter
Jun 8
New

Hourly Weather History & Observations

Time (IST) Temp. Windchill Dew Point Humidity Pressure Visibility Wind Dir Wind Speed Gust Speed Precip Events Conditions
12:00 AM 33.8 °F 27.7 °F 33.8 °F 100% 29.62 in 6.2 mi ENE 6.9 mph - N/A   Partly Cloudy
12:30 AM 35.6 °F 30.7 °F 33.8 °F 93% 29.62 in 6.2 mi NE 5.8 mph - N/A   Partly Cloudy
1:00 AM 31 °F - 30 °F 95% 29.66 in 25 mi NNE 4.5 mph - -   Scattered Clouds
1:00 AM 32.0 °F 27.5 °F 30.2 °F 93% 29.65 in 6.2 mi NNE 4.6 mph - N/A   Partly Cloudy
1:30 AM 33.8 °F 29.6 °F 33.8 °F 100% 29.65 in 6.2 mi NNE 4.6 mph - N/A   Partly Cloudy
2:00 AM 32.0 °F 27.5 °F 30.2 °F 93% 29.65 in 6.2 mi North 4.6 mph - N/A   Partly Cloudy
2:30 AM 32.0 °F 28.7 °F 32.0 °F 100% 29.65 in 6.2 mi North 3.5 mph - N/A   Partly Cloudy
3:00 AM 33.8 °F 29.6 °F 33.8 °F 100% 29.65 in 6.2 mi WNW 4.6 mph - N/A   Mostly Cloudy
3:30 AM 33.8 °F 28.6 °F 33.8 °F 100% 29.65 in 6.2 mi NW 5.8 mph - N/A   Scattered Clouds
4:00 AM 32.0 °F 28.7 °F 32.0 °F 100% 29.68 in 6.2 mi Variable 3.5 mph - N/A   Partly Cloudy
4:30 AM 32.0 °F 27.5 °F 32.0 °F 100% 29.68 in 6.2 mi WNW 4.6 mph - N/A   Partly Cloudy
5:00 AM 35.6 °F 30.7 °F 33.8 °F 93% 29.68 in 6.2 mi NNW 5.8 mph - N/A   Mostly Cloudy
5:30 AM 35.6 °F 30.7 °F 35.6 °F 100% 29.71 in 6.2 mi NNW 5.8 mph - N/A   Mostly Cloudy
6:00 AM 37.4 °F 33.8 °F 37.4 °F 100% 29.71 in 6.2 mi WNW 4.6 mph - N/A   Mostly Cloudy
6:30 AM 37.4 °F 33.8 °F 37.4 °F 100% 29.71 in 6.2 mi NW 4.6 mph - N/A   Mostly Cloudy
7:00 AM 41 °F - 39 °F 92% 29.75 in 19 mi NNW 6.7 mph - -   Mostly Cloudy
7:00 AM 41.0 °F 36.4 °F 39.2 °F 93% 29.74 in 6.2 mi NNW 6.9 mph - N/A   Mostly Cloudy
7:30 AM 42.8 °F 36.2 °F 41.0 °F 93% 29.74 in 6.2 mi North 12.7 mph - N/A   Mostly Cloudy
8:00 AM 44.6 °F 38.8 °F 42.8 °F 93% 29.77 in 6.2 mi North 11.5 mph - N/A   Mostly Cloudy
8:30 AM 46.4 °F 41.1 °F 42.8 °F 87% 29.77 in 6.2 mi North 11.5 mph - N/A   Mostly Cloudy
9:00 AM 46.4 °F 40.4 °F 42.8 °F 87% 29.77 in 6.2 mi NNE 13.8 mph - N/A   Mostly Cloudy
9:30 AM 46.4 °F 40.4 °F 42.8 °F 87% 29.80 in 6.2 mi North 13.8 mph - N/A   Mostly Cloudy
10:00 AM 48.2 °F - 44.6 °F 87% 29.80 in 6.2 mi North 13.8 mph - N/A   Mostly Cloudy
10:30 AM 48.2 °F - 44.6 °F 87% 29.80 in 6.2 mi NNE 13.8 mph - N/A   Mostly Cloudy
11:00 AM 50.0 °F - 44.6 °F 82% 29.80 in 6.2 mi NNE 11.5 mph - N/A   Mostly Cloudy
11:30 AM 50.0 °F - 42.8 °F 76% 29.83 in 6.2 mi NNE 11.5 mph - N/A   Mostly Cloudy
12:00 PM 51.8 °F - 42.8 °F 71% 29.83 in 6.2 mi NNE 12.7 mph - N/A   Scattered Clouds
12:30 PM 51.8 °F - 42.8 °F 71% 29.83 in 6.2 mi NNE 11.5 mph - N/A   Scattered Clouds
1:00 PM 53 °F - 43 °F 58% 29.86 in 12 mi North 8.9 mph - -   Partly Cloudy
1:00 PM 51.8 °F - 42.8 °F 71% 29.83 in 6.2 mi North 9.2 mph - N/A   Scattered Clouds
1:30 PM 53.6 °F - 44.6 °F 72% 29.86 in 6.2 mi NNE 10.4 mph - N/A   Mostly Cloudy
2:00 PM 51.8 °F - 44.6 °F 76% 29.86 in 6.2 mi NNE 12.7 mph - N/A   Scattered Clouds
2:30 PM 51.8 °F - 42.8 °F 71% 29.86 in 6.2 mi NE 10.4 mph - N/A   Partly Cloudy
3:00 PM 53.6 °F - 42.8 °F 67% 29.86 in 6.2 mi ENE 11.5 mph - N/A   Partly Cloudy
3:30 PM 53.6 °F - 42.8 °F 67% 29.86 in 6.2 mi ENE 11.5 mph - N/A   Partly Cloudy
4:00 PM 55.4 °F - 42.8 °F 63% 29.86 in 6.2 mi ENE 11.5 mph - N/A   Partly Cloudy
4:30 PM 55.4 °F - 41.0 °F 58% 29.86 in 6.2 mi ENE 11.5 mph - N/A   Partly Cloudy
5:00 PM 53.6 °F - 41.0 °F 62% 29.86 in 6.2 mi NE 10.4 mph - N/A   Scattered Clouds
5:30 PM 55.4 °F - 39.2 °F 54% 29.86 in 6.2 mi ENE 9.2 mph - N/A   Scattered Clouds
6:00 PM 55.4 °F - 37.4 °F 51% 29.86 in 6.2 mi ENE 6.9 mph - N/A   Scattered Clouds
6:30 PM 55.4 °F - 37.4 °F 51% 29.86 in 6.2 mi ENE 6.9 mph - N/A   Scattered Clouds
7:00 PM 54 °F - 37 °F 40% 29.88 in 19 mi ENE 8.9 mph - -   Scattered Clouds
7:00 PM 55.4 °F - 39.2 °F 54% 29.86 in 6.2 mi ENE 9.2 mph - N/A   Scattered Clouds
7:30 PM 53.6 °F - 37.4 °F 54% 29.89 in 6.2 mi NE 8.1 mph - N/A   Scattered Clouds
8:00 PM 53.6 °F - 39.2 °F 58% 29.89 in 6.2 mi NE 8.1 mph - N/A   Scattered Clouds
8:30 PM 51.8 °F - 39.2 °F 62% 29.89 in 6.2 mi NE 4.6 mph - N/A   Scattered Clouds
9:00 PM 51.8 °F - 37.4 °F 58% 29.89 in 6.2 mi NNW 4.6 mph - N/A   Scattered Clouds
9:30 PM 48.2 °F - 37.4 °F 66% 29.89 in 6.2 mi NNW 5.8 mph - N/A   Scattered Clouds
10:00 PM 46.4 °F 43.5 °F 37.4 °F 71% 29.92 in 6.2 mi NW 5.8 mph - N/A   Scattered Clouds
10:30 PM 42.8 °F 38.0 °F 37.4 °F 81% 29.92 in 6.2 mi NNW 8.1 mph - N/A   Scattered Clouds
11:00 PM 46.4 °F 42.4 °F 37.4 °F 71% 29.92 in 6.2 mi NW 8.1 mph - N/A   Scattered Clouds
11:30 PM 46.4 °F 41.5 °F 37.4 °F 71% 29.92 in 6.2 mi NW 10.4 mph - N/A   Mostly Cloudy